TimeCDT,TemperatureF,Dew PointF,Humidity,Sea Level PressureIn,VisibilityMPH,Wind Direction,Wind SpeedMPH,Gust SpeedMPH,PrecipitationIn,Events,Conditions,WindDirDegrees,DateUTC
12:52 AM,60.1,55.0,83,30.27,10.0,SE,3.5,-,N/A,,Clear,130,2011-10-09 05:52:00
1:52 AM,57.0,54.0,89,30.28,10.0,Calm,Calm,-,N/A,,Clear,0,2011-10-09 06:52:00
2:32 AM,53.6,51.8,94,30.27,0.8,Calm,Calm,-,N/A,,Clear,0,2011-10-09 07:32:00
2:40 AM,53.6,51.8,94,30.27,2.5,Calm,Calm,-,N/A,,Clear,0,2011-10-09 07:40:00
2:47 AM,53.6,51.8,94,30.27,6.0,Calm,Calm,-,N/A,,Clear,0,2011-10-09 07:47:00
2:52 AM,53.1,51.1,93,30.27,7.0,Calm,Calm,-,N/A,,Clear,0,2011-10-09 07:52:00
3:25 AM,51.8,51.8,100,30.27,2.5,Calm,Calm,-,N/A,,Clear,0,2011-10-09 08:25:00
3:34 AM,51.8,50.0,94,30.27,5.0,Calm,Calm,-,N/A,,Clear,0,2011-10-09 08:34:00
3:52 AM,53.1,51.1,93,30.26,6.0,Calm,Calm,-,N/A,,Clear,0,2011-10-09 08:52:00
4:21 AM,51.8,50.0,94,30.27,1.8,Calm,Calm,-,N/A,,Clear,0,2011-10-09 09:21:00
4:45 AM,51.8,48.2,88,30.27,3.0,Calm,Calm,-,N/A,,Clear,0,2011-10-09 09:45:00
4:49 AM,51.8,48.2,88,30.27,1.8,Calm,Calm,-,N/A,,Clear,0,2011-10-09 09:49:00
4:52 AM,52.0,48.9,89,30.27,1.2,Calm,Calm,-,N/A,,Clear,0,2011-10-09 09:52:00
5:01 AM,51.8,50.0,94,30.28,0.5,Calm,Calm,-,N/A,Fog,Fog,0,2011-10-09 10:01:00
5:13 AM,51.8,50.0,94,30.29,2.0,Calm,Calm,-,N/A,,Clear,0,2011-10-09 10:13:00
5:20 AM,51.8,50.0,94,30.29,5.0,Calm,Calm,-,0.01,,Clear,0,2011-10-09 10:20:00
5:30 AM,51.8,50.0,94,30.29,2.0,Calm,Calm,-,0.01,,Clear,0,2011-10-09 10:30:00
5:40 AM,51.8,48.2,88,30.29,3.0,Calm,Calm,-,0.01,,Clear,0,2011-10-09 10:40:00
5:52 AM,50.0,48.0,93,30.29,6.0,Calm,Calm,-,0.01,,Clear,0,2011-10-09 10:52:00
6:19 AM,50.0,48.2,94,30.30,1.8,Calm,Calm,-,N/A,,Clear,0,2011-10-09 11:19:00
6:29 AM,50.0,48.2,94,30.30,3.0,Calm,Calm,-,N/A,,Clear,0,2011-10-09 11:29:00
6:52 AM,50.0,48.0,93,30.30,6.0,Calm,Calm,-,N/A,,Clear,0,2011-10-09 11:52:00
7:52 AM,53.1,51.1,93,30.31,6.0,Calm,Calm,-,N/A,,Clear,0,2011-10-09 12:52:00
8:52 AM,61.0,55.9,83,30.32,10.0,Calm,Calm,-,N/A,,Clear,0,2011-10-09 13:52:00
9:52 AM,69.1,55.0,61,30.33,10.0,South,5.8,-,N/A,,Clear,190,2011-10-09 14:52:00
10:52 AM,73.0,54.0,51,30.31,10.0,Variable,3.5,-,N/A,,Clear,0,2011-10-09 15:52:00
11:52 AM,75.9,52.0,43,30.29,10.0,SE,5.8,-,N/A,,Clear,130,2011-10-09 16:52:00
12:52 PM,77.0,53.1,43,30.27,10.0,East,10.4,16.1,N/A,,Clear,100,2011-10-09 17:52:00
1:52 PM,78.1,53.1,42,30.23,10.0,ESE,8.1,-,N/A,,Clear,120,2011-10-09 18:52:00
2:52 PM,79.0,50.0,36,30.21,10.0,SE,9.2,-,N/A,,Clear,130,2011-10-09 19:52:00
3:52 PM,79.0,50.0,36,30.19,10.0,ESE,11.5,-,N/A,,Clear,120,2011-10-09 20:52:00
4:52 PM,78.1,51.1,39,30.18,10.0,SSE,9.2,-,N/A,,Clear,160,2011-10-09 21:52:00
5:52 PM,75.0,54.0,48,30.17,10.0,SE,5.8,-,N/A,,Clear,130,2011-10-09 22:52:00
6:52 PM,68.0,55.0,63,30.17,10.0,Calm,Calm,-,N/A,,Clear,0,2011-10-09 23:52:00
7:52 PM,61.0,55.0,81,30.18,10.0,Calm,Calm,-,N/A,,Clear,0,2011-10-10 00:52:00
8:52 PM,59.0,55.0,87,30.18,10.0,Calm,Calm,-,N/A,,Clear,0,2011-10-10 01:52:00
9:52 PM,57.0,54.0,89,30.17,10.0,Calm,Calm,-,N/A,,Clear,0,2011-10-10 02:52:00
10:52 PM,54.0,52.0,93,30.17,10.0,Calm,Calm,-,N/A,,Clear,0,2011-10-10 03:52:00